User: anonymous   Login
Location: Igon
(43.1667°N, 0.2333°W)
Time: 08:35:31
(UTC+00:00)
Language:

FENGYUN 1C DEB - Orbit

View from above orbital plane
View from above orbital plane
View from above satellite
View from above satellite

Ground track
Ground track

The orbit data is extracted from the following two-line orbital elements,

1 33698U 99025DGK 21171.44191695  .00000042  00000-0  24597-4 0  9992
2 33698  99.6124 234.8945 0152525   5.4166 354.8630 14.49461801721589
Epoch (UTC): 20 June 2021 10:36:21
Eccentricity: 0.0152525
inclination: 99.6124°
perigee height: 619 km
apogee height: 836 km
right ascension of ascending node: 234.8945°
argument of perigee: 5.4166°
revolutions per day: 14.49461801
mean anomaly at epoch: 354.8630°
orbit number at epoch: 72158

The dashed part of the orbit path shows where the satellite is in the earth's shadow,  

DLR